Tracking 30743 objects as of 21-Jun-2025
HD Live streaming from Space Station
objects crossing your sky now

NAVSTAR 27 (USA 84)

Track NAVSTAR 27 (USA 84) now!
NAVSTAR 27 (USA 84) is classified as:


NORAD ID: 22108
Int'l Code: 1992-058A
Perigee: 21,359.0 km
Apogee: 21,447.2 km
Inclination: 54.7 °
Period: 767.7 minutes
Semi major axis: 27774 km
RCS: 3.0849 m2 (large)
Launch date: September 9, 1992
Source: United States (US)
Launch site: AIR FORCE EASTERN TEST RANGE (AFETR)
Your satellite tracking list
Your tracking list is empty




NASA's NSSDC Master Catalog

Two Line Element Set (TLE):
1 22108U 92058A   25169.61106268  .00000120  00000-0  00000-0 0  9993
2 22108  54.6608 179.2460 0015892  38.0824 322.0632  1.87561279236200
Source of the keplerian elements: AFSPC